Lapse_Rate
8.0 7.7 7.2 7.0 6.9 6.7 6.7 6.6 6.5 6.3 5.9 5.8 5.9 5.8 5.9 5.8 5.8 5.9 5.7 5.6 5.4 5.6 5.7 5.6 5.9 6.0 5.9 5.8 5.5 5.6 6.0 6.0 6.0 5.9 5.7 5.8 5.9 5.9 5.7 5.8 5.7 5.6 5.6
7.5 7.2 7.0 7.0 6.9 6.8 6.7 6.6 6.3 6.1 6.0 5.8 5.8 5.9 5.9 5.8 5.9 5.7 5.7 5.7 5.7 5.6 5.6 5.7 5.8 6.0 6.1 6.0 5.8 5.8 6.0 6.0 6.1 6.1 6.1 6.0 5.8 5.8 5.6 5.7 5.7 5.6 5.7
7.1 7.0 6.9 6.9 6.9 6.8 6.5 6.2 6.2 6.2 5.9 5.7 5.9 6.1 6.0 5.9 5.9 5.7 5.8 5.7 5.3 5.9 5.5 5.5 5.7 6.0 6.0 5.9 5.9 6.0 5.9 6.1 6.1 6.2 6.2 6.0 5.8 5.8 5.8 5.8 5.8 5.9 5.8
7.0 6.8 6.7 6.7 6.6 6.3 6.0 5.9 6.1 6.1 5.8 5.9 6.1 6.0 6.0 6.0 5.7 5.8 5.8 5.8 5.7 5.5 5.4 5.7 5.8 5.9 6.1 6.0 5.9 5.9 6.0 6.1 6.2 6.3 6.1 6.2 6.1 5.8 5.6 5.7 5.5 5.8 5.6
6.8 6.7 6.5 6.4 6.1 5.9 5.9 5.9 6.0 6.0 5.9 6.0 5.9 6.0 6.2 5.9 5.7 5.7 5.7 5.6 5.5 5.3 5.6 5.5 5.7 5.6 5.9 6.0 6.0 5.8 6.2 6.4 6.3 6.4 6.4 6.5 6.1 5.7 5.2 5.6 5.7 5.6 5.5
6.6 6.4 6.4 6.3 6.2 6.2 6.2 6.1 6.2 6.0 6.1 6.0 5.9 6.1 6.3 6.0 5.9 5.6 5.7 5.4 5.3 5.3 5.4 5.5 5.4 5.7 5.8 5.9 6.0 6.2 6.2 6.3 6.6 6.6 6.4 6.3 5.6 5.8 5.5 5.4 5.4 5.5 5.2
6.5 6.5 6.3 6.3 6.3 6.2 6.1 6.1 6.1 6.1 6.0 6.0 6.0 6.2 6.2 6.0 6.0 5.6 5.7 5.6 5.6 5.4 5.4 5.5 5.4 5.4 5.6 5.6 5.7 5.9 6.1 6.2 6.2 5.9 6.2 6.2 6.2 6.0 5.8 5.6 5.0 5.2 5.2
6.5 6.3 6.2 6.0 6.0 6.1 6.1 6.2 6.2 6.2 6.1 6.0 6.0 6.2 6.0 6.0 5.9 5.7 5.7 5.7 5.7 5.5 5.4 5.4 5.6 5.5 5.5 5.4 5.4 5.7 5.9 6.2 6.3 6.1 6.1 6.0 5.9 5.6 5.1 5.2 5.2 5.0 4.9
6.1 6.1 5.9 5.7 6.0 6.0 6.0 6.1 6.1 6.2 6.0 5.9 5.9 6.1 6.1 6.0 5.9 5.9 5.7 5.7 5.6 5.5 5.5 5.3 5.4 5.1 5.0 5.1 5.4 5.4 5.6 5.5 5.5 5.6 5.6 5.4 5.3 5.0 5.0 5.1 5.1 5.2 5.3
6.1 5.9 5.7 5.8 6.0 6.0 6.0 6.1 6.1 6.1 6.0 5.9 5.8 6.0 6.1 6.0 5.9 5.8 5.6 5.6 5.5 5.4 5.5 5.4 5.2 5.1 4.6 4.7 4.8 5.3 5.4 5.3 5.5 5.7 5.5 5.3 5.1 5.1 4.9 5.0 5.5 5.4 5.9
6.2 5.8 5.8 6.1 6.1 6.0 5.8 5.7 5.7 5.8 5.7 5.7 5.7 5.9 6.0 5.9 5.9 5.7 5.6 5.5 5.4 5.2 5.3 5.4 5.4 5.2 4.9 4.8 4.7 5.0 5.2 5.5 5.4 4.9 4.8 4.9 4.7 4.8 5.0 5.2 5.2 5.3 5.1
6.2 5.7 6.0 6.3 6.3 6.1 5.9 5.6 5.6 5.6 5.5 5.7 5.6 5.7 5.9 5.8 5.8 5.8 5.5 5.3 5.2 5.0 5.1 5.1 4.9 4.9 4.7 4.6 4.6 4.7 4.9 5.1 5.1 5.3 5.2 5.1 4.9 5.2 5.0 4.9 5.2 5.3 5.1
5.9 5.8 6.4 6.6 6.6 6.3 6.0 5.6 5.6 5.6 5.6 5.7 5.7 5.8 5.8 5.8 5.9 5.7 5.5 5.2 5.2 5.4 5.3 5.0 4.8 4.6 4.5 4.4 4.6 4.5 4.8 4.9 5.0 5.0 5.0 5.2 5.1 5.1 5.5 5.3 5.4 5.5 5.3
6.2 6.0 6.7 6.8 6.8 6.6 6.2 5.8 5.7 5.7 5.6 5.6 5.8 5.9 5.8 5.6 5.6 5.5 5.3 5.1 5.1 5.4 5.3 5.0 4.8 4.9 5.0 4.8 4.9 4.7 4.6 4.6 5.0 5.1 5.0 5.1 5.2 5.4 5.4 5.4 5.6 5.5 5.5
6.6 6.4 6.7 6.9 6.9 6.8 6.2 5.9 5.9 5.8 5.8 5.7 5.8 6.0 5.8 5.6 5.5 5.4 5.3 5.3 5.0 5.0 5.3 5.3 5.3 5.3 5.4 5.2 5.1 5.0 4.8 4.7 4.7 4.9 5.2 5.5 5.5 5.5 5.5 5.6 5.6 5.6 5.5
6.7 6.6 6.7 6.9 7.0 6.9 6.4 5.9 5.8 5.7 5.8 5.7 5.8 5.9 5.8 5.6 5.7 5.7 5.6 5.5 5.3 5.2 5.1 5.0 5.2 5.3 5.3 5.3 5.3 5.2 4.9 4.7 5.0 5.2 5.4 5.5 5.7 5.7 5.7 5.7 5.6 5.6 5.5
6.6 6.7 6.8 6.8 6.8 6.7 6.5 6.2 5.7 5.6 5.8 6.0 6.0 6.0 6.2 6.2 6.2 6.2 6.1 6.1 5.9 5.8 5.5 5.4 5.4 5.5 5.4 5.4 5.5 5.6 5.7 5.7 5.8 5.9 5.9 6.0 5.9 5.8 5.8 5.9 5.8 5.9 5.8
6.5 6.6 6.7 6.7 6.7 6.6 6.4 6.5 6.2 6.1 6.2 6.3 6.3 6.5 6.6 6.7 6.8 6.6 6.4 6.5 6.4 6.4 6.3 6.1 6.1 5.9 6.0 6.2 6.2 6.3 6.4 6.5 6.5 6.4 6.3 6.2 6.1 6.1 6.1 6.1 6.0 6.0 5.8
6.7 6.6 6.7 6.7 6.7 6.7 6.7 6.6 6.6 6.3 6.4 6.7 6.6 6.7 6.8 6.7 6.7 6.7 6.6 6.4 6.3 6.4 6.5 6.5 6.5 6.4 6.4 6.3 6.3 6.4 6.4 6.5 6.5 6.4 6.5 6.5 6.5 6.5 6.4 6.3 6.2 6.2 6.1
7.1 6.9 6.7 7.0 7.0 6.9 6.9 7.0 7.0 6.9 6.8 6.7 6.8 6.7 6.7 6.7 6.7 6.7 6.8 6.8 6.8 6.8 6.8 6.9 6.9 6.9 6.8 6.6 6.5 6.5 6.5 6.5 6.6 6.6 6.5 6.5 6.4 6.3 6.2 6.2 6.2 6.2 6.2
7.4 7.4 7.1 6.9 7.0 7.1 7.2 7.1 7.1 7.2 7.2 7.2 7.2 7.1 6.9 6.8 6.7 6.6 6.5 6.5 6.4 6.5 6.5 6.7 6.8 6.9 6.9 6.9 6.9 7.0 6.9 6.8 6.8 6.7 6.7 6.6 6.5 6.5 6.4 6.3 6.3 6.3 6.4
7.6 7.6 7.6 7.2 7.0 6.9 7.1 7.1 7.2 7.2 7.3 7.2 7.4 7.5 7.5 7.5 7.5 7.3 7.2 7.0 6.9 6.9 6.9 6.9 6.9 6.8 6.9 6.9 6.7 6.7 6.8 6.8 6.8 6.9 6.8 6.6 6.5 6.5 6.5 6.6 6.7 6.6 6.6
7.9 7.5 7.6 7.6 7.1 6.8 6.8 6.9 7.0 7.0 7.1 7.2 7.2 7.5 7.6 7.5 7.5 7.5 7.5 7.4 7.4 7.3 7.2 7.3 7.3 7.3 7.3 7.2 7.2 7.1 7.2 7.2 7.0 6.7 6.7 6.6 6.6 6.7 6.7 6.8 6.9 6.9 7.1
8.0 7.9 7.8 7.7 7.5 7.0 6.7 6.5 6.4 6.4 6.6 6.7 6.8 6.9 7.0 7.3 7.5 7.5 7.3 7.3 7.4 7.4 7.4 7.4 7.4 7.4 7.4 7.4 7.4 7.5 7.5 7.4 7.3 7.2 7.1 7.0 7.1 7.1 7.1 7.1 7.2 7.3 7.3
7.5 7.5 7.9 7.9 7.8 7.2 6.8 6.7 6.6 6.6 6.6 6.6 6.6 6.6 6.5 6.4 6.6 6.7 6.8 6.9 7.0 7.1 7.1 7.2 7.4 7.5 7.5 7.5 7.4 7.5 7.5 7.4 7.3 7.3 7.2 7.1 7.2 7.3 7.4 7.5 7.7 7.9 7.9
7.4 7.4 7.3 7.3 7.7 7.4 7.3 7.0 6.9 6.8 6.8 7.0 7.2 7.2 7.2 7.1 7.0 6.9 6.8 6.7 6.6 6.4 6.3 6.4 6.6 6.8 7.0 7.2 7.4 7.5 7.4 7.4 7.3 7.3 7.3 7.3 7.2 7.4 7.6 7.7 7.9 7.9 7.8
Wind_Speed
9 9 10 8 8 7 6 5 5 5 5 5 5 4 3 3 3 3 4 4 3 3 4 5 4 5 4 4 4 2 3 3 6 2 1 3 5 8 9 15 18 22 28
8 9 8 7 7 6 6 5 5 6 4 5 4 3 3 2 2 3 3 4 5 5 5 4 4 3 4 5 4 6 5 3 5 6 2 2 6 9 10 11 11 19 24
9 9 6 6 6 6 6 5 5 5 4 3 3 3 3 1 2 2 4 5 5 7 5 4 5 5 5 3 4 6 6 5 7 5 4 3 4 8 10 10 11 12 21
9 8 7 6 6 5 5 6 5 4 4 4 4 4 3 3 2 4 2 4 5 4 4 4 5 7 8 7 7 8 9 8 8 8 7 7 7 7 10 11 9 10 11
7 6 5 5 5 5 5 5 5 4 3 4 6 5 4 3 3 4 3 4 5 4 3 3 4 7 8 7 7 9 11 10 9 8 8 7 8 8 12 8 10 11 8
6 5 6 7 5 5 5 5 5 4 4 5 5 4 4 3 6 4 4 5 5 4 4 4 5 8 8 9 10 10 9 12 13 8 8 10 9 9 10 11 13 10 5
6 6 6 5 6 5 5 5 5 4 4 5 5 4 4 3 5 5 6 5 4 4 5 6 6 5 8 8 12 13 11 11 9 13 13 12 12 13 12 11 12 7 5
6 7 7 6 6 5 5 5 4 3 4 4 4 4 3 3 3 6 8 6 5 6 6 7 7 8 9 10 11 11 9 10 10 9 10 11 11 11 12 10 11 10 9
6 7 7 7 6 6 5 5 3 4 3 3 3 3 3 3 4 8 7 5 6 6 5 6 7 8 10 13 13 13 12 9 15 21 21 23 23 21 17 10 9 11 7
7 7 7 7 6 6 6 5 3 3 3 4 4 3 3 4 4 8 6 5 6 5 6 6 10 10 14 13 13 13 13 10 13 14 13 12 19 18 15 7 9 10 8
6 7 7 6 6 6 6 3 4 4 4 5 5 3 4 3 4 7 8 5 5 5 5 5 5 12 13 13 12 11 12 13 14 13 11 9 8 7 5 7 7 8 5
6 7 7 6 4 4 6 3 4 4 5 5 5 4 3 3 4 5 8 9 8 7 7 6 5 12 12 11 10 15 16 13 10 10 9 7 7 5 5 7 10 10 6
6 6 5 6 5 5 5 5 3 4 5 5 4 3 3 2 3 6 6 10 10 8 6 8 10 13 13 12 13 14 11 9 9 9 8 7 8 6 8 6 7 5 5
7 7 6 5 5 5 3 4 4 4 4 5 4 3 3 3 3 4 4 5 10 9 11 7 9 11 11 9 6 7 7 8 8 8 8 7 5 5 5 4 4 5 4
6 6 6 4 5 5 4 2 3 2 4 5 4 5 5 4 4 6 7 5 6 8 9 5 5 5 7 5 6 6 6 6 6 5 7 7 7 6 5 4 4 4 3
7 5 5 5 4 4 4 3 8 3 7 6 9 6 2 4 11 10 9 11 14 13 5 5 6 5 7 6 7 6 5 7 7 7 7 8 8 9 7 4 3 4 5
8 7 5 5 5 5 3 4 4 4 8 5 5 9 8 8 9 11 13 15 12 11 5 5 5 7 8 8 7 7 6 6 7 7 8 8 8 8 5 7 7 6 7
7 10 8 7 6 5 5 4 3 3 3 2 7 3 3 10 11 12 14 9 5 4 6 6 6 5 5 6 6 6 5 6 6 7 7 8 8 8 7 7 8 9 8
7 6 6 6 6 6 4 4 3 3 3 4 3 4 8 10 10 9 8 7 8 6 6 7 6 6 6 6 5 8 8 9 8 8 8 8 8 8 9 8 8 9 8
7 11 9 7 6 5 5 5 4 3 4 4 4 4 4 4 4 5 5 5 7 7 7 7 7 8 8 8 8 8 8 7 8 9 9 9 8 8 9 10 9 9 8
5 6 8 5 6 7 6 6 5 4 4 5 5 6 9 7 8 8 8 8 8 8 8 8 8 9 9 9 8 8 9 9 9 9 9 9 9 9 10 10 10 10 10
4 5 6 6 5 6 6 6 6 6 5 5 4 4 8 5 6 7 8 8 9 8 8 8 8 9 9 9 10 10 10 10 10 10 10 10 10 10 10 10 11 10 10
3 4 5 5 5 5 4 6 6 6 6 6 5 6 7 8 8 8 8 8 8 9 9 8 8 8 9 8 10 10 10 11 11 10 11 10 10 10 10 11 11 11 11
9 7 3 1 2 4 5 5 5 6 7 6 6 6 7 8 8 10 9 8 9 9 9 9 10 13 11 11 13 16 17 17 16 13 15 11 11 11 12 12 12 14 12
10 9 10 9 7 3 1 1 1 2 3 4 4 4 5 6 7 8 7 7 8 8 11 11 10 15 18 19 16 21 24 29 26 23 16 15 16 17 14 12 13 12 14
10 10 10 10 11 11 10 9 10 9 9 8 7 6 5 4 6 6 7 7 8 9 10 8 12 18 18 17 25 28 27 26 24 27 21 13 13 14 13 16 19 13 13
Wind_Direction
109 111 111 111 113 116 123 132 135 130 141 146 162 175 189 218 180 193 215 200 198 232 213 202 198 176 176 175 162 167 144 127 134 105 103 106 101 97 93 103 113 119 118
117 113 113 114 116 117 125 136 135 134 148 154 160 168 211 223 199 203 209 182 208 169 239 176 160 154 156 171 165 174 163 149 133 137 96 83 105 108 102 100 101 113 122
121 118 116 121 122 129 137 134 130 143 149 160 152 211 196 226 286 266 224 201 194 182 203 185 155 149 153 159 142 146 139 127 131 130 106 92 94 116 98 96 104 103 111
130 131 137 143 142 138 139 132 140 148 152 193 190 132 119 75 0 332 278 182 166 157 157 170 163 167 165 154 137 137 133 123 119 117 113 115 115 119 113 115 109 110 114
139 140 139 133 136 134 134 141 144 147 177 158 129 106 85 57 22 355 60 113 127 115 97 140 159 146 144 141 144 146 138 129 126 122 117 122 126 135 132 125 110 111 95
129 136 146 151 142 146 138 147 144 158 156 134 109 111 86 57 338 46 110 113 119 126 132 122 118 118 119 122 127 131 140 140 139 133 136 137 126 126 128 133 124 129 122
138 146 139 136 148 154 141 134 131 157 150 123 113 107 87 64 5 99 108 109 103 104 102 110 103 110 114 114 98 92 85 95 125 144 141 143 134 137 132 128 130 129 121
153 146 141 148 148 148 140 127 121 116 141 123 115 111 98 42 39 106 108 113 93 88 95 103 111 120 125 123 118 112 109 108 116 127 128 133 125 125 125 123 119 107 102
155 151 152 154 147 150 146 138 131 128 141 128 126 124 106 72 81 118 112 100 97 90 91 98 113 122 132 116 113 112 102 87 82 99 107 109 110 115 121 120 127 128 126
163 159 153 151 154 154 149 151 143 147 151 120 115 105 105 108 97 124 112 107 102 91 83 84 90 122 119 119 122 123 117 119 116 111 105 97 112 119 125 136 147 140 133
150 143 149 157 157 146 146 156 144 140 132 122 111 110 98 89 121 139 121 109 114 102 102 100 107 115 115 116 120 124 123 126 122 122 119 119 124 129 128 128 119 145 138
150 145 159 150 143 133 131 121 132 136 129 128 122 115 96 91 98 143 131 111 119 114 115 111 109 105 100 96 111 124 122 123 126 129 129 133 144 144 142 131 136 134 86
142 144 143 135 126 134 137 142 130 138 138 144 137 136 117 104 101 109 119 117 113 110 118 109 110 100 95 93 112 119 124 129 132 138 149 155 165 139 128 128 137 135 89
148 146 142 144 130 132 140 145 123 150 139 148 149 146 143 129 119 122 118 101 92 94 104 110 97 91 99 111 114 114 131 139 141 148 155 141 125 138 145 144 158 178 208
152 151 143 138 142 138 100 115 146 179 161 162 171 165 160 159 169 148 141 141 130 122 117 124 115 110 125 128 128 130 129 131 138 134 142 148 160 165 164 170 150 164 193
149 150 160 151 154 145 138 135 44 61 159 154 155 155 154 135 139 137 129 124 126 133 123 132 124 128 139 146 153 152 152 154 157 153 155 167 177 183 183 179 182 196 209
163 152 150 144 157 156 160 170 157 46 62 58 162 160 156 150 141 138 139 142 144 136 140 140 144 153 159 163 170 171 173 180 165 176 177 182 186 189 178 203 211 223 235
160 163 165 170 167 166 175 183 166 165 150 137 54 63 110 127 131 126 127 117 127 115 162 161 162 161 161 167 167 178 185 173 180 185 187 188 191 196 201 217 218 228 237
156 166 168 165 165 164 162 165 182 169 140 138 130 82 74 86 102 124 155 163 175 176 178 185 179 181 180 178 180 198 195 191 192 193 198 201 203 206 220 225 231 228 226
170 169 167 169 157 159 167 174 183 186 156 160 167 157 140 137 160 167 197 180 184 189 189 189 186 184 188 192 195 199 203 195 195 203 208 210 215 218 229 232 233 238 231
173 165 168 160 173 177 178 191 194 181 191 185 182 177 183 181 181 182 189 199 198 202 200 202 197 197 198 198 197 198 203 208 210 211 214 216 215 221 227 233 241 242 245
155 166 169 181 177 177 189 191 187 196 201 209 186 167 172 204 191 197 202 207 209 210 204 201 207 206 202 200 201 202 204 208 207 208 211 214 215 220 224 229 237 241 245
133 157 171 178 177 169 177 188 192 203 210 211 196 173 184 203 208 206 209 210 207 210 210 208 212 217 212 207 205 205 207 212 212 207 212 216 219 222 224 229 232 235 234
53 66 85 129 157 169 179 192 205 207 214 219 208 200 198 206 211 216 216 210 208 212 209 211 215 218 217 215 214 215 217 218 213 211 211 216 221 221 228 231 231 231 236
49 52 58 50 45 36 34 357 261 258 246 251 248 234 228 222 230 235 235 227 224 215 213 213 217 223 220 219 220 219 220 215 216 216 215 223 227 227 226 230 233 233 232
42 44 47 52 44 42 47 50 52 48 46 38 21 355 315 263 249 245 244 238 235 234 235 232 235 231 230 228 231 231 225 218 219 220 218 223 228 232 232 235 238 237 239